Tracking 26951 objects as of 4-Feb-2023
HD Live streaming from Space Station
objects crossing your sky now

NOAA 16 DEB

Track NOAA 16 DEB now!
10-day predictions


NORAD ID: 41233
Int'l Code: 2000-055EN
Perigee: 834.8 km
Apogee: 898.6 km
Inclination: 98.8 °
Period: 102.1 minutes
Semi major axis: 7237 km
RCS: Unknown
Launch date: September 21, 2000
Source: United States (US)
Launch site: AIR FORCE WESTERN TEST RANGE (AFWTR)

Note: This is SATELLITE DEBRIS
Your satellite tracking list
Your tracking list is empty




NASA's NSSDC Master Catalog

Two Line Element Set (TLE):
1 41233U 00055EN  23031.91237424  .00002443  00000-0  13976-2 0  9995
2 41233  98.7548  80.2280 0044070  66.6945 293.8855 14.09950893366808
Source of the keplerian elements: AFSPC